KUIPER-00205

Last updated on Sun Mar 15 2026 00:02:06 GMT+0000 (Coordinated Universal Time)

1 67774U 26030L 26073.56535920 .00045173 00000+0 12456-2 0 9994 2 67774 51.8802 195.5046 0003633 35.9401 324.1829 15.36658416 5845
UTC large
Height (km)
Speed (km/s)
/
Latitude / Longitude
Inclination (degrees)
Orbital Period (minutes)
Azimuth
Elevation
Range (km)
Doppler Factor

Next 0 passes for location: London (51.5072 / 0.1276)

Sorry there are no passes over London.